Location: Unspecified
(0.0000°N, 0.0000°E)
Time: 20:12:51
(UTC+00:00)

DOVE 4 - Pass Details

Date: 09 December 2017
Orbit: 588 x 804 km, 97.7° (Epoch: 22 January)

Event Time Altitude Azimuth Distance (km) Brightness Sun altitude
Rises 03:54:50 0° 36° (NE) 2,896 ? -26.9°
Reaches altitude 10° 03:57:30 10° 52° (NE) 1,963 ? -26.3°
Maximum altitude 04:00:40 21° 101° (E) 1,375 ? -25.6°
Drops below altitude 10° 04:03:47 10° 150° (SSE) 1,923 ? -24.9°
Sets 04:06:21 0° 166° (SSE) 2,817 ? -24.3°
